Meteo orario Kozinka

Oggi, 4 Marzo, Giovedi

Tempo Temperatura Precipitazioni Vento Pressione Umidità
00:00 -4°C° 0 mm 5 m/s 744 mm Hg 87%
01:00 -4°C° 0 mm 5 m/s 744 mm Hg 87%
02:00 -4°C° 0 mm 5 m/s 744 mm Hg 87%
03:00 -4°C° 0 mm 5 m/s 744 mm Hg 87%
04:00 -4°C° 0 mm 5 m/s 745 mm Hg 86%
05:00 -2°C° 0 mm 5 m/s 745 mm Hg 85%
06:00 -2°C° 0 mm 5 m/s 745 mm Hg 84%
07:00 -2°C° 0 mm 5 m/s 745 mm Hg 80%
08:00 -1°C° 0 mm 5 m/s 745 mm Hg 76%
09:00 0°C° 0 mm 5 m/s 745 mm Hg 73%
10:00 +1°C° 0 mm 5 m/s 744 mm Hg 67%
11:00 +2°C° 0 mm 5 m/s 744 mm Hg 62%
12:00 +3°C° 0 mm 5 m/s 744 mm Hg 56%
13:00 +3°C° 0 mm 5 m/s 743 mm Hg 56%
14:00 +3°C° 0 mm 5 m/s 743 mm Hg 56%
15:00 +5°C° 0 mm 5 m/s 742 mm Hg 56%
16:00 +4°C° 0 mm 4 m/s 742 mm Hg 60%
17:00 +3°C° 0 mm 4 m/s 742 mm Hg 64%
18:00 +2°C° 0 mm 3 m/s 742 mm Hg 68%
19:00 +1°C° 0 mm 3 m/s 742 mm Hg 73%
20:00 +1°C° 0 mm 3 m/s 742 mm Hg 78%
21:00 0°C° 0 mm 3 m/s 742 mm Hg 83%
22:00 0°C° 0 mm 3 m/s 741 mm Hg 83%
23:00 0°C° 0 mm 3 m/s 741 mm Hg 82%

Domani, 5 Marzo, Venerdi

Tempo Temperatura Precipitazioni Vento Pressione Umidità
00:00 0°C° 0 mm 3 m/s 741 mm Hg 82%
01:00 +1°C° 0 mm 2 m/s 741 mm Hg 80%
02:00 +1°C° 0 mm 2 m/s 741 mm Hg 77%
03:00 +2°C° 0 mm 1 m/s 741 mm Hg 75%
04:00 +1°C° 0 mm 2 m/s 741 mm Hg 74%
05:00 -1°C° 0 mm 2 m/s 741 mm Hg 74%
06:00 -1°C° 0 mm 2 m/s 740 mm Hg 73%
07:00 +1°C° 0 mm 3 m/s 740 mm Hg 68%
08:00 +2°C° 0 mm 3 m/s 740 mm Hg 63%
09:00 +3°C° 0 mm 4 m/s 740 mm Hg 58%
10:00 +4°C° 0 mm 3 m/s 740 mm Hg 53%
11:00 +7°C° 0 mm 3 m/s 740 mm Hg 48%
12:00 +8°C° 0 mm 3 m/s 740 mm Hg 43%
13:00 +9°C° 0 mm 3 m/s 739 mm Hg 40%
14:00 +10°C° 0 mm 2 m/s 739 mm Hg 37%
15:00 +10°C° 0 mm 2 m/s 739 mm Hg 34%
16:00 +9°C° 0 mm 2 m/s 739 mm Hg 38%
17:00 +9°C° 0 mm 1 m/s 739 mm Hg 43%
18:00 +8°C° 0 mm 1 m/s 739 mm Hg 48%
19:00 +7°C° 0 mm 1 m/s 739 mm Hg 50%
20:00 +6°C° 0 mm 1 m/s 740 mm Hg 53%
21:00 +5°C° 0 mm 2 m/s 740 mm Hg 55%
22:00 +4°C° 0 mm 2 m/s 740 mm Hg 56%
23:00 +4°C° 0 mm 2 m/s 739 mm Hg 57%

Dopodomani, 6 Marzo, Sabato

Tempo Temperatura Precipitazioni Vento Pressione Umidità
00:00 +2°C° 0 mm 3 m/s 739 mm Hg 59%
01:00 +2°C° 0 mm 3 m/s 739 mm Hg 58%
02:00 +2°C° 0 mm 3 m/s 739 mm Hg 57%
03:00 +2°C° 0 mm 3 m/s 739 mm Hg 56%
04:00 +2°C° 0 mm 3 m/s 739 mm Hg 53%
05:00 +3°C° 0 mm 2 m/s 738 mm Hg 51%
06:00 +3°C° 0 mm 2 m/s 738 mm Hg 48%
07:00 +5°C° 0 mm 2 m/s 738 mm Hg 46%
08:00 +6°C° 0 mm 2 m/s 738 mm Hg 44%
09:00 +8°C° 0 mm 2 m/s 738 mm Hg 42%
10:00 +9°C° 0 mm 2 m/s 738 mm Hg 38%
11:00 +11°C° 0 mm 3 m/s 738 mm Hg 34%
12:00 +12°C° 0 mm 4 m/s 737 mm Hg 31%
13:00 +13°C° 0 mm 5 m/s 737 mm Hg 33%
14:00 +14°C° 0 mm 6 m/s 737 mm Hg 34%
15:00 +13°C° 0 mm 8 m/s 736 mm Hg 36%
16:00 +13°C° 0 mm 6 m/s 736 mm Hg 43%
17:00 +10°C° 0 mm 5 m/s 736 mm Hg 51%
18:00 +10°C° 0 mm 4 m/s 736 mm Hg 58%
19:00 +7°C° 0 mm 5 m/s 737 mm Hg 68%
20:00 +5°C° 0 mm 6 m/s 737 mm Hg 78%
21:00 +3°C° 0 mm 6 m/s 738 mm Hg 88%
22:00 +2°C° 0.9 mm 6 m/s 738 mm Hg 90%
23:00 -1°C° 0.9 mm 6 m/s 739 mm Hg 93%

7 Marzo, Domenica

Tempo Temperatura Precipitazioni Vento Pressione Umidità
00:00 -2°C° 0.9 mm 6 m/s 739 mm Hg 96%
01:00 -3°C° 0.8 mm 7 m/s 740 mm Hg 95%
02:00 -3°C° 0.8 mm 7 m/s 740 mm Hg 94%
03:00 -3°C° 0.8 mm 7 m/s 741 mm Hg 94%
04:00 -4°C° 0.2 mm 7 m/s 741 mm Hg 89%
05:00 -6°C° 0.2 mm 7 m/s 742 mm Hg 84%
06:00 -6°C° 0.2 mm 6 m/s 743 mm Hg 79%
07:00 -7°C° 0 mm 7 m/s 743 mm Hg 74%
08:00 -7°C° 0 mm 7 m/s 744 mm Hg 69%
09:00 -7°C° 0 mm 7 m/s 744 mm Hg 64%
10:00 -5°C° 0 mm 6 m/s 744 mm Hg 63%
11:00 -5°C° 0 mm 6 m/s 744 mm Hg 62%
12:00 -4°C° 0 mm 5 m/s 744 mm Hg 61%
13:00 -4°C° 0 mm 5 m/s 744 mm Hg 60%
14:00 -2°C° 0 mm 5 m/s 744 mm Hg 59%
15:00 -2°C° 0 mm 5 m/s 743 mm Hg 59%
16:00 -3°C° 0 mm 4 m/s 743 mm Hg 63%
17:00 -2°C° 0 mm 3 m/s 743 mm Hg 67%
18:00 -3°C° 0 mm 2 m/s 743 mm Hg 71%
19:00 -4°C° 0 mm 3 m/s 743 mm Hg 72%
20:00 -4°C° 0 mm 3 m/s 743 mm Hg 73%
21:00 -5°C° 0 mm 3 m/s 744 mm Hg 74%
22:00 -5°C° 0 mm 3 m/s 743 mm Hg 73%
23:00 -5°C° 0 mm 3 m/s 743 mm Hg 72%

8 Marzo, Lunedi

Tempo Temperatura Precipitazioni Vento Pressione Umidità
00:00 -5°C° 0 mm 3 m/s 743 mm Hg 72%
01:00 -5°C° 0 mm 3 m/s 743 mm Hg 71%
02:00 -5°C° 0 mm 3 m/s 743 mm Hg 71%
03:00 -5°C° 0 mm 3 m/s 742 mm Hg 71%
04:00 -5°C° 0 mm 3 m/s 742 mm Hg 71%
05:00 -5°C° 0 mm 3 m/s 742 mm Hg 71%
06:00 -5°C° 0 mm 3 m/s 742 mm Hg 72%
07:00 -4°C° 0 mm 4 m/s 742 mm Hg 68%
08:00 -4°C° 0 mm 5 m/s 741 mm Hg 63%
09:00 -3°C° 0 mm 6 m/s 741 mm Hg 59%
10:00 -1°C° 0 mm 5 m/s 741 mm Hg 57%
11:00 0°C° 0 mm 5 m/s 741 mm Hg 55%
12:00 0°C° 0 mm 5 m/s 740 mm Hg 53%
13:00 +1°C° 0 mm 5 m/s 740 mm Hg 53%
14:00 +1°C° 0 mm 5 m/s 740 mm Hg 53%
15:00 +1°C° 0 mm 5 m/s 739 mm Hg 53%
16:00 0°C° 0 mm 5 m/s 739 mm Hg 60%
17:00 -1°C° 0 mm 4 m/s 739 mm Hg 67%
18:00 -1°C° 0 mm 3 m/s 739 mm Hg 73%
19:00 -1°C° 0 mm 3 m/s 740 mm Hg 72%
20:00 -1°C° 0 mm 3 m/s 740 mm Hg 71%
21:00 -2°C° 0 mm 3 m/s 740 mm Hg 70%
22:00 -2°C° 0 mm 3 m/s 740 mm Hg 71%
23:00 -2°C° 0 mm 3 m/s 740 mm Hg 72%

9 Marzo, Martedi

Tempo Temperatura Precipitazioni Vento Pressione Umidità
00:00 -2°C° 0 mm 2 m/s 740 mm Hg 72%
01:00 -2°C° 0 mm 2 m/s 739 mm Hg 73%
02:00 -2°C° 0 mm 2 m/s 739 mm Hg 74%
03:00 -2°C° 0 mm 2 m/s 739 mm Hg 74%
04:00 -2°C° 0 mm 2 m/s 739 mm Hg 74%
05:00 -2°C° 0 mm 2 m/s 739 mm Hg 74%
06:00 -2°C° 0 mm 2 m/s 739 mm Hg 73%
07:00 -1°C° 0 mm 2 m/s 739 mm Hg 68%
08:00 0°C° 0 mm 3 m/s 739 mm Hg 62%
09:00 +2°C° 0 mm 3 m/s 739 mm Hg 57%
10:00 +3°C° 0 mm 3 m/s 739 mm Hg 54%
11:00 +4°C° 0 mm 3 m/s 738 mm Hg 51%
12:00 +5°C° 0 mm 3 m/s 738 mm Hg 48%
13:00 +5°C° 0 mm 4 m/s 738 mm Hg 49%
14:00 +5°C° 0 mm 4 m/s 737 mm Hg 49%
15:00 +5°C° 0 mm 4 m/s 737 mm Hg 50%
16:00 +4°C° 0.1 mm 4 m/s 737 mm Hg 61%
17:00 +3°C° 0.1 mm 4 m/s 737 mm Hg 72%
18:00 0°C° 0.1 mm 4 m/s 737 mm Hg 83%
19:00 0°C° 0.5 mm 5 m/s 737 mm Hg 84%
20:00 -1°C° 0.5 mm 5 m/s 738 mm Hg 85%
21:00 -3°C° 0.5 mm 6 m/s 738 mm Hg 86%
22:00 -3°C° 0.1 mm 6 m/s 739 mm Hg 82%
23:00 -4°C° 0.1 mm 6 m/s 739 mm Hg 78%
Mostrare altro